Ana Sayfa
METAR-TAF:

METAR-TAF

Havaalanları :

Austin, Teksas, Amerika Birleşik Devletleri

Enlem: 30-24-00N, Boylam: 097-34-25W, yükseklik: 189 m

Güncel hava durumu gözlemi

Rapor saat 16:35 UTC de 25 dakika önce yapıldı.
Rüzgar güneydan 6 kt
Sıcaklık 11°C
Nem 54%
Basınç 1030 hPa
Görüş mesafesi: 16.1 km
Açık gökyüzü

METAR: KEDC 221635Z AUTO 17006KT 10SM CLR 11/02 A3042 RMK AO2

Saat: 10:00 (17:00 UTC)


TAF: eksik

4.000'den fazla havaalanı için hava durumu gözlemleri ve tahminleri (METAR ve TAF raporları).

Kullanılabilir istasyonlar harita üzerinde sarı ve kırmızı noktalarla gösterilir.

İstasyonun adını görmek için fareyi noktanın üzerinde gezdirin.

Sonrasında hava gözlem ve tahminlerini görmek için tıklayın.

Haritayı değiştirmek için: yaklaştırmak için siyah artı işaretli yeşil düğmeye ve uzaklaştırmak için de eksi işaretli düğmeye hızla tıklayın; bitişik haritalar için yeşil okları kullanın.


METAR-TAF: